SL-12 DEB

Satellite information

Favourite Embed

Satellite Type and Status

DEBRISIN ORBIT

Key statistics

Satellite SL-12 DEB at a glance.

Uptime

14709

Days in orbit

Revolutions

≈ 14.0

Per day

Orbit

LEO

Low Earth Orbit

Inclination

66.6

Latest

Satellite identification and parameters

Extended collection of information and parameters for SL-12 DEB.

Object identification

Identified? True

Debris? True

Object name: SL-12 DEB

International designator: 1985-042K

Object number (NORAD): 18767

Object ID (CCSDS): 18767

Country: COMMONWEALTH OF INDEPENDENT STATES (CIS)

Current information (Y/N): Y

RCS size: SMALL

Orbital parameters

Period: 102.564 minutes

Inclination: 66.5829 deg

SMA: 7258.129 km

Apoapsis: 972.818 km

Periapsis: 787.169 km

RAAN: 233.7063 deg

Eccentricy: 0.01278907

Argument of periapsis: 76.2389 deg

Mean anomaly: 285.2891 deg

Mean motion: 14.03995684 rev/day

Mean motion (dot): 0.00002339 rev/day2

B* drag term: 0.0014212018 1/REarth

Two-line elements (TLE)

Creation date: Sept. 5, 2025, 7:38 p.m.

Reference frame: TEME

Reference center: EARTH

Epoch: Sept. 5, 2025, 8:48 a.m. UTC

TLE line 0: 0 SL-12 DEB

TLE line 1: 1 18767U 85042K 25248.36735404 .00002339 00000-0 14212-2 0 9990

TLE line 2: 2 18767 66.5829 233.7063 0127891 76.2389 285.2891 14.03995684910749

Live tracking on map

Real-time ground track for satellite SL-12 DEB.

In-orbit conjunctions

A list of the most updated potential collisions computed for object SL-12 DEB.

Target Orbit TCA Probability of collision Miss distance Type
THOR AGENA D R/B SSO 2025-04-28 05:38:54 0.0002930541 326.0 (m) ROCKET BODY
COSMOS 887 LEO 2024-12-24 13:28:55 0.0009669178 175.0 (m) PAYLOAD
CZ-6A DEB SSO 2024-06-12 22:26:27 0.0003518651 53.0 (m) DEBRIS

Associated space launch

Second generation ELING satellite

SL-12 DEB was lifted into orbit during the mission ‘Proton | Tselina-2 2’, on board a Proton space rocket.

The launch took place on May 30, 1985, 2:59 p.m. from 200/40.

For more information about the launch, click the button.

Launch to space Proton | Tselina-2 2
Proton | Tselina-2 2

Agency: N/A

Status: Launch Successful

Launch date: May 30, 1985, 2:59 p.m. UTC

Rocket: Proton

Launch pad: 200/40

Location: Baikonur Cosmodrome, Republic of Kazakhstan

...

Latest news about this satellite

There are no fresh news available about this satellite. Check back as we update our databases every day.


Newsletter sign-up

Weekly statistics, charts and insights to help you stay on top of the space industry.